Погода в Садгороде

Россия / Самарская область     53°23′07″N   51°10′24″E
темп.,
°C
ветер,
м/с
пор.,
м/с
влажн.,
%
обл.,
%
осадки,
мм/ч
давл.,
гПа
погр.,
м
2 декабря, чт
чт201:00−1зсз5108999 0.3 996514
04:00−3зюз39935 0.3 999254
07:00−3зюз49925 0.0 1001284
10:00−3юз411895 0.0 1004417
13:00−1юз5128399 0.0 1005704
16:00−1юз61191100 0.0 1006673
19:00−1зюз7119097 0.0 1008768
22:00−3зюз498528 0.1 1010383
3 декабря, пт
пт301:00−3юз51182100 0.0 1011589
04:00−3юз61283100 0.0 1011540
07:00−3ююз61292100 0.1 1011587
10:00−2юз71495100 0.9 1012570
13:000юз61498100 0.7 1013593
16:00+1юз61398100 0.9 1014493
19:00+1юз51297100 0.0 1016447
22:00+1ююз51198100 0.0 1017355
4 декабря, сб
сб401:00+2ююз51299100 0.0 1017406
04:00+2ююз71593100 0.0 1017496
07:00+2ююз81783100 0.0 1017504
10:00+2ю8188867 0.0 1016599
13:00+3ююз91791100 0.0 1015736
16:00+4ююз101786100 0.0 1013785
19:00+3ююз91791100 1.6 1013886
22:00+4ююз71496100 6.4 1012954
5 декабря, вс
вс501:00+2з4799100 3.6 1012426
04:000зсз27100100 7.4 1013317
07:000зсз379526 1.3 1014364
10:00−3зсз37955 1.3 1016242
13:00−2зсз4786100 0.0 1018513
16:00−2зсз3588100 0.0 1019209
19:00−3з249215 0.0 1021142
22:00−4з24945 0.0 102288
6 декабря, пн
пн601:00−4зсз2393100 0.0 102379
04:00−4зсз2491100 0.0 1025129
07:00−4сз1490100 0.0 1025261
10:00−3сз2485100 0.0 1027398
13:00−3ссз3479100 0.0 1029599
16:00−4ссв3481100 0.0 1030491
19:00−6св358215 0.0 1032348
22:00−6всв4582100 0.0 1034366